Regional Weather Roundup
Issued by NWS

Home | Current Version | Previous Version | Text Only | Print | Product List | Glossary Off
Versions: 1 2 3 4 5 6 7 8 9 10 11 12 13 14 15 16 17 18 19 20 21 22 23 24 25 26 27 28 29 30 31 32 33 34 35 36 37 38 39 40 41 42 43 44 45 46 47 48 49 50

000
ASUS45 KSLC 220810
RWRUT

UTAH REGIONAL WEATHER ROUNDUP
NATIONAL WEATHER SERVICE SALT LAKE CITY UT
200 AM MDT SUN APR 22 2018

UTZ001>011-023>025-220900-

NORTHERN UTAH

CITY           SKY/WX    TMP DP  RH WIND       PRES   REMARKS
BRIGHAM CITY   CLEAR     49  35  59 CALM      30.16S
HILL AFB       CLEAR     50  27  40 NE12      30.16S
LOGAN          CLEAR     46  34  62 W3        30.17S
OGDEN          CLEAR     47  29  49 MISG      30.15S
SALT LAKE CITY CLEAR     52  31  44 SE8       30.14S
TOOELE VALLEY  CLEAR     46  32  57 CALM      30.15R
WENDOVER       CLEAR     51  32  48 CALM      30.12S
HEBER CITY       N/A     32  23  69 SE3       30.21S
WEST JORDAN    CLEAR     48  33  56 SW3       30.16S

$$

UTZ011>015-024>027-220900-

CENTRAL/NORTHEAST UTAH

CITY           SKY/WX    TMP DP  RH WIND       PRES   REMARKS
PROVO AIRPORT  CLEAR     42  34  73 E6        30.17S
MOAB/CANYONLAN CLEAR     53  34  48 SE9       30.13S
DELTA          CLEAR     43  34  70 N3        30.16S
PRICE          CLEAR     44  24  45 N8        30.18S
ROOSEVELT      CLEAR     41  34  75 CALM      30.18R
VERNAL         CLEAR     43  34  70 CALM      30.17R

$$

UTZ013>016-019>022-027-220900-

SOUTHERN UTAH

CITY           SKY/WX    TMP DP  RH WIND       PRES   REMARKS
BRYCE CANYON   CLEAR     31  22  69 W8        30.28S WCI  23
CEDAR CITY     CLEAR     40  29  64 N5        30.17S
MILFORD        CLEAR     42  34  73 SW6       30.16S
ST GEORGE      SUNNY     58  25  28 SE5       30.06R
HANKSVILLE     CLEAR     45  19  36 CALM      30.15S
BLANDING         N/A     47  26  43 N8        30.25S

$$

REGIONAL REPORTS     COLORADO/ARIZONA

CITY           SKY/WX    TMP DP  RH WIND       PRES   REMARKS
CRAIG, CO      CLEAR     34  31  88 CALM      30.22R
GRAND JUNCTION CLEAR     47  36  65 SE13      30.18S
RIFLE, CO      CLEAR     37  34  89 CALM      30.24S
MONTROSE, CO   CLEAR     39  31  72 S6        30.25R WCI  35
CORTEZ, CO     CLEAR     35  24  64 NE7       30.21R WCI  29
COLORADO CITY    N/A     41  28  60 SE6       30.17S
PAGE, AZ       CLEAR     55  30  38 SW3       30.11R
GRAND CANYON   PTCLDY    31  22  69 CALM      30.23F
KINGMAN, AZ    PTCLDY    60  22  23 CALM      30.06S
FLAGSTAFF, AZ  CLEAR     31  18  58 CALM      30.24S

$$

REGIONAL REPORTS    NEVADA/IDAHO/WYOMING

CITY           SKY/WX    TMP DP  RH WIND       PRES   REMARKS
LAS VEGAS, NV  MOCLDY    69  28  21 S5        29.99R
ELY, NY        CLEAR     36  19  50 S15       30.21S WCI  27
ELKO, NV       CLEAR     41  31  67 CALM      30.15S
POCATELLO, ID  CLEAR     52  29  41 S12       30.15R
BURLEY, ID     CLEAR     42  32  67 SW8       30.13S
FORT BRIDGER,    N/A     44  26  47 W9        30.28R
EVANSTON, WY   CLEAR     41  23  48 S5        30.25F
ROCK SPRINGS,  CLEAR     41  26  55 SW10      30.21R
KEMMERER, WY   CLEAR     36  28  75 NW8       30.25S WCI  29

$$



USA.gov is the U.S. government's official web portal to all federal, state and local government web resources and services.